GFSFLT1_sfc_rhum_000.txt.gz
RH
16 18 23 25 32 31 32 33 36 40 42 44 45 48 46 46 50 49 50 49 45 49 55 54 53 54 57 62 64 61 61 60
17 24 28 30 35 32 32 32 38 38 42 46 46 49 47 48 45 44 48 46 46 49 52 49 52 53 55 55 60 61 65 63
19 23 31 35 34 34 34 32 35 36 36 40 43 46 42 42 44 50 46 50 46 45 52 48 49 54 57 60 61 62 65 62
20 27 33 38 40 41 34 32 33 38 39 36 41 44 46 43 43 46 50 50 51 51 50 52 52 55 60 63 61 61 65 64
22 28 31 37 41 44 40 37 34 33 43 37 45 38 36 35 42 38 36 52 54 48 50 52 56 58 58 62 51 71 67 68
25 25 27 33 37 48 46 42 40 37 42 45 43 48 45 47 49 47 45 47 44 42 44 52 57 62 64 66 66 67 70 71
26 26 28 29 40 45 50 47 37 40 43 46 53 51 53 54 53 54 52 51 54 55 48 57 60 60 60 63 63 62 66 67
32 29 29 34 38 42 46 43 39 40 48 50 50 57 57 56 55 54 50 51 49 52 52 54 54 54 55 56 58 61 61 58
30 31 35 35 39 41 40 35 36 37 43 47 53 54 54 55 53 53 52 50 49 46 48 51 50 52 55 57 58 58 60 62
29 31 34 38 41 42 47 42 38 39 45 52 52 54 54 53 50 54 52 50 38 50 52 52 54 58 59 59 61 58 57 59
32 33 37 39 38 39 45 50 41 40 42 46 47 50 52 49 50 49 47 48 46 50 50 51 52 53 54 58 60 59 61 61
33 34 36 38 40 39 38 39 38 42 43 53 54 49 49 46 44 45 44 49 47 48 48 49 47 47 49 53 55 55 54 54
30 31 34 39 43 44 42 41 41 41 42 50 50 47 45 47 46 46 50 49 49 51 47 44 43 43 46 48 50 46 49 50
33 32 38 42 47 51 48 36 40 39 38 45 47 48 47 47 53 52 50 51 50 47 43 48 46 48 46 47 46 47 48 49
33 37 43 46 51 52 42 34 41 38 38 40 49 47 49 53 53 53 54 52 52 50 48 48 50 45 41 43 41 46 49 49
49 51 47 49 54 54 42 38 39 38 38 40 49 62 59 54 53 56 55 57 50 49 47 47 50 45 37 46 52 59 60 62
57 49 53 55 55 54 41 38 38 39 44 66 71 63 54 53 55 56 58 56 51 49 51 52 53 38 56 69 73 69 66 67
57 60 63 57 56 52 50 48 63 72 76 72 66 65 51 53 50 50 57 58 56 56 54 54 55 55 64 71 72 70 74 74
63 63 57 57 57 62 72 72 65 67 69 69 62 49 47 49 53 53 54 54 56 54 57 58 61 56 69 71 73 76 80 82

GFSFLT1_sfc_rhum_003.txt.gz
RH
22 25 30 32 33 32 35 34 31 40 46 45 49 50 46 58 66 68 60 59 50 50 64 66 57 60 67 62 61 65 67 68
30 33 31 34 35 30 30 33 37 40 43 46 45 50 50 54 49 55 57 55 48 48 55 61 62 60 60 58 64 60 62 66
26 32 37 32 33 34 33 33 36 40 43 45 46 47 47 47 50 55 57 55 53 50 54 50 52 55 52 57 67 66 69 66
26 26 35 41 40 37 36 36 36 43 40 42 47 52 50 45 46 56 53 51 55 53 53 58 57 60 60 65 60 59 68 70
28 28 32 42 42 43 37 36 39 40 47 43 43 43 42 42 44 46 51 57 57 55 53 57 58 64 64 70 65 72 73 77
29 32 31 33 44 50 46 43 42 41 46 50 45 47 54 48 50 48 52 62 58 52 56 63 65 70 64 65 67 69 78 80
34 36 34 36 45 52 54 49 45 46 46 48 52 45 43 53 54 57 59 59 59 54 51 59 60 58 56 58 58 57 62 69
40 37 35 42 46 46 49 53 53 50 53 54 52 52 45 46 56 59 59 57 58 51 50 52 53 54 54 54 55 58 61 66
38 42 45 48 48 48 49 49 48 48 54 58 58 58 54 45 55 62 62 60 57 51 53 53 49 49 50 51 49 59 66 66
43 44 51 53 52 52 56 52 51 52 53 58 64 67 61 63 55 56 58 53 47 52 52 51 54 57 57 57 70 69 70 68
44 47 54 52 53 53 55 51 47 45 52 52 56 53 50 53 52 50 49 50 49 53 56 62 64 58 58 59 61 63 69 73
42 43 49 56 57 58 58 53 52 44 54 60 55 54 49 48 46 47 50 50 46 52 55 60 56 53 52 54 59 60 65 64
43 49 56 58 59 62 57 56 52 44 61 55 52 49 46 46 48 51 56 54 52 52 55 51 52 54 56 60 61 60 59 60
57 58 56 56 62 63 62 58 47 46 49 50 48 47 47 53 54 51 48 52 55 50 50 58 58 59 56 60 56 56 56 60
62 62 61 61 59 58 65 54 52 50 46 48 52 52 53 60 60 57 56 55 56 58 59 60 64 56 49 49 48 56 60 60
63 63 65 66 62 65 60 55 54 51 45 52 72 71 65 61 61 58 62 62 59 61 63 61 61 57 44 55 63 70 74 75
61 64 63 63 63 64 62 62 68 70 74 82 82 76 71 64 54 57 66 63 64 58 61 64 65 46 63 79 79 84 80 81
68 68 67 64 73 66 73 74 72 77 80 78 84 84 85 80 61 56 60 62 60 61 63 64 67 71 73 72 71 68 77 78
75 67 65 76 77 81 84 84 79 77 76 76 81 84 78 56 56 57 59 59 60 62 65 70 75 65 73 74 73 78 85 85

GFSFLT1_sfc_rhum_006.txt.gz
RH
29 29 34 37 38 39 36 31 34 43 50 51 54 56 55 61 76 78 69 66 60 62 73 70 63 69 71 70 62 69 68 66
37 36 38 36 36 34 37 36 37 43 48 50 51 50 54 57 63 70 70 65 60 58 64 69 70 66 69 65 64 66 65 68
34 35 40 34 34 34 34 33 36 42 46 48 46 48 50 49 53 59 70 68 62 57 61 65 66 69 67 67 68 71 72 74
34 37 38 40 37 37 34 35 36 41 45 47 50 56 57 56 53 56 61 64 60 60 59 66 64 67 66 63 64 67 71 76
30 32 42 45 40 44 40 39 39 41 48 49 48 38 38 37 38 50 56 58 58 61 62 65 66 72 73 74 70 79 80 80
34 36 35 34 40 46 48 45 45 44 50 55 54 48 45 42 57 52 55 62 62 66 66 71 75 72 65 60 59 59 71 72
38 39 40 46 50 52 54 53 49 51 53 55 61 58 50 54 55 60 67 70 70 70 62 66 64 63 61 62 57 58 59 58
39 37 47 53 56 56 53 55 52 51 60 62 63 64 60 57 51 56 65 60 61 58 59 61 61 62 64 67 65 68 64 59
44 52 55 56 55 55 50 48 50 49 55 58 66 71 77 74 68 72 73 64 65 62 64 68 69 69 73 72 76 80 77 72
52 55 58 60 59 60 61 60 52 53 58 62 63 65 68 65 64 65 64 59 54 62 73 82 88 90 87 71 75 71 71 71
50 55 60 61 62 63 65 62 58 61 55 58 54 54 58 60 60 59 62 65 70 79 87 88 89 76 70 68 72 69 72 73
59 57 55 54 54 58 65 69 68 52 52 60 59 52 53 54 56 60 58 60 63 68 70 70 71 70 67 65 66 68 71 71
63 63 62 64 66 70 70 73 56 54 58 61 59 55 53 57 61 61 60 58 54 55 58 58 60 61 64 65 68 65 69 67
70 69 63 68 69 69 70 72 58 58 57 60 55 53 54 62 60 59 56 54 54 56 53 60 63 65 65 66 65 63 62 60
69 71 70 73 70 73 76 61 65 67 61 58 57 56 59 66 65 61 57 56 59 59 60 65 69 67 62 61 59 68 74 71
71 72 76 77 75 78 69 70 72 72 58 61 72 72 70 67 65 66 65 61 63 65 68 66 66 62 49 75 78 81 81 81
63 70 74 72 74 77 73 76 79 81 79 83 80 78 77 83 83 82 73 68 64 60 62 64 66 51 74 76 80 85 80 77
69 77 78 77 81 74 83 86 90 81 83 84 90 90 90 84 81 74 64 62 60 60 60 63 70 75 69 70 74 73 79 82
72 80 79 82 81 84 89 90 90 87 87 83 83 87 83 71 61 60 59 58 57 60 65 70 74 69 74 70 75 82 88 87

GFSFLT1_sfc_rhum_009.txt.gz
RH
36 33 37 43 47 41 36 51 52 52 56 59 59 61 65 66 68 81 78 79 76 72 79 81 72 73 75 75 68 74 70 67
42 42 43 42 45 43 36 35 38 50 53 54 55 53 57 62 62 64 78 76 72 72 72 77 76 72 70 73 70 67 71 74
39 42 42 38 38 39 40 38 39 42 47 48 49 51 52 53 58 62 71 75 72 68 64 66 72 71 73 76 72 76 74 79
38 37 38 41 39 38 37 37 38 42 46 49 51 57 58 58 55 59 56 70 70 70 63 60 67 71 68 71 75 74 73 82
35 39 40 42 40 44 44 43 43 42 48 50 53 45 42 39 43 46 47 62 60 64 62 62 64 76 76 76 74 81 80 76
33 32 35 41 45 51 56 55 53 52 56 58 61 62 56 52 54 62 58 60 69 66 66 67 72 79 75 71 66 64 68 68
42 40 47 52 59 60 58 56 54 53 54 60 68 70 65 68 66 69 64 72 75 77 74 72 65 66 70 69 65 63 65 68
45 55 56 58 61 61 56 58 58 58 61 63 61 67 76 78 75 74 73 75 74 73 68 67 72 73 76 76 84 86 88 88
55 58 63 63 64 63 65 63 63 62 66 60 65 67 75 79 84 81 83 76 78 76 80 80 84 86 88 89 94 95 94 94
64 66 64 64 65 65 70 68 66 67 65 62 63 61 64 67 66 76 78 73 72 90 94 91 89 88 92 93 93 91 87 82
64 66 64 63 65 68 74 70 72 72 55 57 58 60 61 63 68 70 72 77 84 89 88 83 84 89 88 87 79 73 71 76
65 66 66 67 70 70 74 74 78 64 60 62 67 66 59 60 64 67 71 73 68 71 64 73 82 80 74 73 70 70 71 70
67 69 68 71 73 74 74 80 76 64 68 68 67 69 59 60 64 62 63 58 58 59 62 62 66 66 66 69 70 68 70 70
67 71 66 68 74 77 78 82 68 70 72 70 68 67 60 64 62 60 58 56 54 56 56 61 64 69 70 72 72 71 71 72
68 69 74 72 76 77 82 80 75 77 78 74 69 62 62 67 64 64 71 66 62 62 64 69 73 66 62 63 65 75 78 75
72 70 72 77 82 82 85 79 81 84 88 73 72 67 68 70 83 90 78 69 67 70 67 64 64 59 50 73 77 78 79 79
73 65 70 82 82 84 80 82 87 92 90 87 82 88 91 92 91 89 87 84 66 60 59 63 65 53 70 75 78 86 82 78
70 71 79 85 85 83 86 89 91 90 89 88 90 93 94 92 87 85 69 61 59 58 60 65 72 74 69 71 74 80 82 82
65 76 89 80 82 85 90 91 91 87 70 64 63 64 62 63 61 58 60 61 59 61 67 74 79 74 71 69 70 81 88 87

GFSFLT1_sfc_rhum_012.txt.gz
RH
41 38 44 45 56 59 54 59 69 66 65 66 66 66 65 72 70 74 80 83 84 86 86 84 84 81 83 85 75 78 73 69
48 48 50 52 53 44 40 47 51 54 58 57 59 56 57 62 63 63 72 77 80 83 80 83 86 77 70 76 77 73 76 80
41 44 46 45 45 44 41 39 40 45 51 52 55 55 55 57 59 61 64 70 78 77 76 72 78 77 78 77 76 78 76 82
43 41 42 42 41 42 41 42 42 46 48 51 52 56 57 55 52 56 52 61 65 77 72 72 71 76 71 68 72 75 68 85
40 41 44 44 43 47 48 48 48 49 56 57 60 59 59 55 57 54 50 59 66 66 76 77 72 73 78 83 77 80 79 84
38 39 42 59 58 65 66 60 58 58 61 64 69 65 65 70 70 72 69 68 70 68 72 77 82 84 83 78 74 72 68 68
41 50 57 63 64 64 64 62 60 61 63 63 68 74 73 75 74 78 78 82 81 81 83 86 83 79 80 81 82 76 78 77
51 64 65 64 65 66 63 66 64 64 64 62 64 68 70 73 70 74 82 86 81 83 83 81 84 90 90 92 94 91 95 95
70 68 68 67 66 66 69 68 67 69 72 61 63 62 67 65 68 73 85 83 87 91 95 94 94 94 95 92 95 96 96 96
67 65 67 69 68 69 73 76 74 76 73 65 67 68 68 65 66 77 83 84 87 94 93 92 91 88 91 93 96 94 95 95
65 65 66 66 68 72 77 78 77 79 66 66 65 69 67 68 72 77 79 85 91 92 88 81 82 80 84 93 96 93 92 88
65 68 70 72 74 74 78 77 79 83 66 74 77 70 71 71 69 75 80 84 84 75 67 69 74 81 82 81 78 73 72 72
66 72 74 75 73 76 80 82 85 80 74 78 78 81 78 69 68 68 70 62 61 60 60 62 65 67 69 72 74 73 73 72
67 68 74 75 76 78 82 82 89 74 79 85 88 74 68 68 69 70 71 71 65 63 60 60 67 73 74 72 71 72 73 76
66 74 76 78 76 81 84 86 80 83 89 93 77 75 69 76 84 92 85 78 74 74 72 74 71 65 60 60 64 74 77 75
76 82 74 68 70 80 84 83 85 90 94 91 89 89 91 94 94 94 88 87 88 79 66 63 63 58 48 75 75 78 80 80
82 78 75 78 83 89 86 82 85 91 92 92 85 88 88 92 87 89 89 88 92 76 63 66 68 58 72 73 80 88 84 80
69 60 61 75 81 82 80 86 92 93 78 67 76 75 68 70 75 77 71 65 64 62 64 69 74 76 69 67 68 73 81 83
69 62 78 77 82 84 90 74 72 68 68 68 68 68 70 72 63 62 64 61 60 64 69 78 80 66 66 68 70 81 88 87

GFSFLT1_sfc_rhum_018.txt.gz
RH
26 24 21 22 33 37 41 40 39 42 36 38 31 30 28 30 28 28 34 34 40 43 40 43 44 44 43 41 46 42 41 40
20 25 27 28 39 38 37 37 40 32 30 29 27 28 26 26 26 33 38 36 39 44 39 41 42 44 47 51 48 51 48 43
24 27 31 34 35 34 31 28 29 27 24 27 31 34 30 32 32 34 33 39 38 36 41 40 41 41 47 50 54 52 50 46
23 25 31 33 35 34 29 30 32 37 36 29 30 30 31 28 33 31 30 34 35 38 40 43 45 44 42 46 49 52 52 49
24 28 33 38 41 38 35 34 33 35 39 34 40 34 35 36 34 31 33 36 36 36 40 43 47 44 47 47 43 52 53 54
30 32 34 37 42 42 40 35 36 37 39 40 36 39 36 35 38 44 40 34 33 33 41 47 50 48 52 60 60 59 55 58
31 33 32 34 41 42 40 35 34 38 40 42 45 48 50 45 41 38 32 32 31 36 42 49 53 55 58 60 70 74 75 74
34 33 32 34 37 40 37 36 35 36 41 42 45 44 44 43 41 37 41 36 36 41 50 54 51 58 64 68 72 78 85 92
34 33 34 35 40 40 41 38 37 34 37 40 39 42 42 41 40 43 44 44 44 50 54 53 55 55 63 71 81 88 89 89
34 33 34 36 39 41 46 42 38 37 38 43 45 46 49 46 48 48 44 48 43 56 54 55 55 54 56 56 61 56 67 73
33 32 35 36 37 40 45 41 40 42 44 46 46 49 45 49 47 47 49 49 54 55 58 49 50 52 58 66 63 59 64 66
36 36 36 37 41 40 40 42 44 44 44 48 49 48 47 45 44 46 49 53 50 49 43 49 62 72 77 72 63 57 53 54
33 36 38 41 39 37 37 44 42 43 44 44 48 48 46 46 47 47 49 48 47 47 50 60 70 70 63 58 56 45 45 44
35 38 40 42 39 41 40 41 44 42 39 44 48 50 49 48 51 53 52 53 56 59 73 79 67 64 62 54 47 45 44 43
40 43 42 39 38 38 43 43 40 41 46 46 51 57 61 79 78 62 61 57 58 60 58 57 55 44 39 38 40 42 44 42
46 46 45 34 38 46 42 39 41 48 48 47 61 64 62 62 55 49 46 46 44 43 42 42 42 40 32 49 44 45 43 43
50 45 37 36 44 44 39 40 44 46 45 48 48 48 44 46 46 44 41 39 37 38 39 41 43 34 64 64 61 45 42 40
48 42 37 43 47 39 40 40 40 44 46 44 45 48 45 42 38 35 37 40 40 41 41 42 46 44 62 64 65 48 46 47
37 35 38 44 39 36 40 34 37 43 44 44 42 43 42 37 35 36 40 41 42 42 44 46 46 40 60 64 68 58 55 53

GFSFLT1_sfc_rhum_021.txt.gz
RH
20 21 21 20 29 29 31 36 38 36 33 33 28 27 25 26 26 25 32 34 37 40 39 42 41 40 41 42 50 45 46 45
21 24 24 26 33 33 34 36 39 31 28 28 25 27 25 26 24 31 35 34 37 41 36 37 40 38 44 50 48 52 50 48
23 27 31 32 32 30 29 28 29 26 23 27 31 33 29 29 31 33 32 34 35 34 43 38 41 39 47 50 52 48 48 48
22 26 31 34 34 31 28 29 30 34 34 26 28 28 29 27 28 29 29 35 36 39 42 39 44 45 43 49 49 52 50 48
23 26 31 37 38 35 32 31 30 32 37 32 38 33 34 33 35 33 36 41 37 32 33 36 45 46 51 51 41 52 55 52
26 28 31 34 38 39 36 31 32 34 37 38 38 40 37 36 38 42 39 33 31 29 32 39 47 46 49 55 61 66 60 65
27 28 27 31 37 38 36 32 29 31 36 40 43 46 44 38 37 37 33 34 32 35 33 42 48 51 54 63 65 71 73 72
28 28 28 30 34 35 35 32 33 32 35 37 39 39 41 41 40 38 42 38 36 39 43 49 47 57 61 65 68 71 76 82
29 29 31 31 33 35 38 37 36 32 36 38 40 42 39 40 41 44 43 41 41 43 47 50 58 66 76 73 72 73 71 68
28 28 29 31 33 34 38 38 35 35 38 42 44 42 44 44 47 44 42 44 39 45 52 63 62 65 63 65 65 67 72 67
28 28 31 31 32 34 37 35 34 38 41 42 40 44 43 44 43 45 45 46 45 59 62 66 57 60 65 66 65 64 70 79
28 29 32 32 34 36 33 33 36 38 37 39 41 40 42 42 41 42 44 46 44 44 49 55 63 67 69 72 70 66 65 60
30 32 37 39 37 34 33 36 35 35 35 35 37 39 40 41 42 50 56 51 53 55 68 84 81 70 61 63 63 60 61 59
32 35 34 35 35 34 32 35 36 34 32 33 36 38 49 54 54 64 57 52 50 50 58 70 65 62 46 41 38 39 41 41
36 35 35 35 33 30 34 35 35 31 33 35 38 48 53 50 55 51 47 43 41 37 37 36 39 36 34 35 36 40 41 38
37 40 38 33 28 32 34 33 32 31 35 35 39 43 44 45 46 44 40 37 33 31 33 34 35 34 30 43 44 46 44 42
48 42 32 28 29 33 33 33 32 32 35 37 36 40 45 48 44 42 36 32 32 34 35 36 38 29 68 63 60 49 45 44
56 35 30 29 31 32 31 30 30 30 34 34 37 44 44 44 37 31 32 35 36 38 37 37 40 40 60 61 67 52 50 50
40 30 28 28 28 30 30 27 29 31 30 34 41 42 45 39 32 31 34 36 38 39 41 41 43 40 66 68 68 58 56 53

GFSFLT1_sfc_rhum_024.txt.gz
RH
24 25 30 34 46 41 40 47 57 63 53 50 49 48 47 49 49 52 54 52 58 64 62 66 67 65 66 67 72 70 71 70
29 32 36 39 46 45 46 52 51 48 47 48 50 53 51 49 46 50 52 51 50 60 61 61 64 64 68 67 69 69 68 70
32 36 41 43 42 41 39 38 44 42 41 45 51 54 51 50 50 48 48 50 52 50 61 60 62 65 67 70 71 71 69 71
31 36 44 48 48 47 38 40 42 48 53 43 47 49 52 49 51 50 48 58 57 58 62 63 65 66 70 70 68 70 72 71
28 35 43 50 52 50 43 41 40 42 50 52 58 55 52 54 55 51 48 55 55 50 52 58 64 70 72 72 64 82 80 84
31 35 40 43 53 54 49 42 39 44 48 54 60 61 59 55 58 59 57 57 55 50 52 60 68 70 72 84 79 80 80 84
30 31 35 42 54 51 51 44 39 44 46 52 56 60 61 61 61 62 60 55 52 54 50 64 67 72 75 76 76 80 76 80
33 32 33 36 43 46 46 46 44 45 51 51 55 60 62 61 62 61 60 55 55 55 59 66 74 76 80 81 82 81 81 88
35 34 36 37 42 45 46 45 45 44 52 60 60 60 59 59 59 57 60 60 61 61 71 73 73 78 79 79 82 84 87 90
32 33 38 40 41 46 50 47 42 45 52 58 60 61 63 63 60 62 65 63 50 67 70 74 72 76 77 79 78 78 86 88
32 31 37 39 42 45 53 47 42 45 48 55 48 52 54 59 60 62 62 64 62 64 69 75 73 74 75 76 78 84 85 85
32 33 38 40 46 47 48 44 41 44 44 50 54 52 52 55 59 63 68 66 63 62 70 80 82 84 79 80 75 73 71 77
34 37 38 40 43 44 41 45 44 45 44 44 47 50 59 61 61 60 66 70 63 62 64 74 79 79 77 75 72 66 71 70
34 37 40 39 40 39 38 42 43 40 36 40 45 50 60 61 61 64 64 63 59 56 53 56 55 57 55 52 50 53 56 54
35 40 41 42 38 35 35 40 43 38 36 40 48 53 58 58 62 63 61 57 54 50 49 49 52 45 41 45 47 59 60 53
44 48 47 40 34 34 35 40 38 41 38 41 48 52 52 57 61 62 57 53 46 46 46 50 53 44 41 60 58 61 63 60
48 47 41 34 32 33 36 38 38 40 40 41 40 50 51 57 59 61 56 49 49 51 52 53 55 36 72 66 68 71 63 62
50 45 38 33 34 30 31 35 36 37 38 36 40 53 50 55 50 49 48 53 53 55 56 56 59 61 67 68 70 69 69 68
44 38 33 32 28 27 32 32 36 39 41 45 36 53 52 51 54 49 51 54 57 58 60 60 66 54 74 73 74 79 76 72

GFSFLT1_sfc_rhum_027.txt.gz
RH
43 48 49 53 55 60 55 57 72 76 74 64 64 61 60 60 61 61 56 63 57 60 63 67 70 71 74 77 77 72 80 79
44 47 50 49 48 44 49 54 58 50 54 55 57 59 57 57 57 50 48 56 58 63 67 63 65 68 73 72 75 78 73 79
50 58 63 67 54 50 50 49 51 53 56 59 59 61 58 58 62 61 62 61 59 55 69 71 71 74 74 77 77 78 84 82
49 52 60 61 59 52 49 51 52 55 55 58 59 61 62 63 60 58 60 61 62 60 61 68 70 77 78 78 88 93 97 92
49 56 61 62 63 59 51 48 49 52 54 61 64 70 68 70 68 65 61 62 58 55 61 66 74 79 78 89 82 91 89 94
51 56 56 59 59 57 52 50 51 52 59 62 69 64 65 64 67 70 68 65 61 58 57 64 70 81 91 88 87 77 78 78
48 54 55 60 62 59 57 54 51 56 56 57 61 64 68 71 72 74 71 68 67 64 57 75 85 88 88 83 81 79 82 83
46 46 52 57 56 58 53 55 53 54 64 65 67 68 66 65 65 65 66 72 71 70 81 84 89 86 82 81 83 90 90 91
44 44 47 50 52 56 55 52 51 60 65 67 70 66 75 71 64 68 72 68 71 74 79 81 80 81 87 88 94 91 90 93
41 44 50 53 54 60 59 50 50 57 64 63 64 64 68 66 64 69 78 77 60 77 81 83 82 82 84 83 86 91 93 94
46 51 52 53 54 57 56 52 53 54 55 57 55 57 61 69 74 78 81 79 73 74 86 86 89 91 88 85 87 89 90 92
49 50 51 51 54 56 56 52 52 52 50 52 56 68 71 73 72 73 78 78 78 75 76 86 87 90 91 91 90 84 81 81
46 49 52 53 52 52 52 53 52 49 48 51 52 68 68 67 68 66 69 70 77 72 68 67 79 85 86 88 88 76 69 67
53 55 56 55 52 48 48 50 50 46 44 48 49 56 66 62 66 68 71 70 67 63 59 60 61 62 59 60 63 65 66 64
56 59 59 56 48 45 44 51 48 46 43 46 51 57 67 65 66 69 68 65 61 55 55 57 62 58 57 59 60 69 71 67
59 60 58 54 48 45 44 50 47 48 48 47 54 57 67 63 67 68 68 62 54 52 55 58 61 56 52 68 69 74 75 75
59 57 54 50 41 41 40 43 52 48 45 52 54 63 58 67 70 67 66 56 52 54 55 59 64 48 72 70 74 80 76 77
57 54 51 44 43 37 41 46 45 45 48 56 65 69 79 76 76 71 54 55 56 57 59 64 69 72 72 69 73 81 83 81
55 50 46 41 41 41 42 39 42 42 57 55 62 72 81 83 75 68 61 56 57 62 66 69 76 63 75 76 82 90 88 84

GFSFLT1_sfc_rhum_030.txt.gz
RH
52 54 53 57 63 75 82 87 87 89 87 79 75 69 62 66 68 63 68 66 66 70 72 71 71 72 76 77 77 78 81 80
55 60 66 50 53 58 70 77 70 69 72 74 68 63 64 68 64 66 66 64 62 67 70 70 73 75 79 79 84 80 82 89
55 67 74 76 78 66 64 59 57 55 62 65 65 66 69 67 66 67 65 62 61 53 68 68 72 80 78 81 88 92 95 94
59 61 76 75 68 65 57 56 56 59 61 62 66 68 70 67 69 69 66 64 63 65 66 71 73 79 81 89 91 88 95 92
59 62 64 62 63 58 56 55 57 57 61 65 65 69 66 73 75 72 69 65 64 63 65 70 76 86 92 93 85 90 84 81
63 63 61 62 58 58 60 56 56 61 65 68 72 67 74 76 78 71 67 67 64 62 71 82 88 92 93 89 88 88 90 90
62 63 61 64 67 66 64 60 61 66 69 72 76 76 76 75 70 70 72 72 70 75 79 87 90 92 92 93 92 91 94 93
64 64 65 70 72 66 62 59 65 64 67 70 71 72 71 66 64 69 70 72 75 82 86 88 92 91 91 92 93 93 93 95
59 61 61 62 61 62 62 59 63 68 72 69 71 72 72 70 66 73 79 81 80 81 86 81 82 84 89 91 94 94 92 95
56 56 58 60 62 62 57 59 65 64 66 64 64 70 69 70 74 81 85 80 68 82 83 83 88 89 89 89 94 93 94 94
57 57 58 60 63 64 62 60 58 57 57 57 57 64 72 76 81 82 78 78 78 80 84 89 88 90 91 92 94 92 91 93
59 60 58 57 57 57 60 59 54 52 52 57 69 75 75 76 73 75 77 78 75 78 77 80 90 90 91 93 93 91 88 82
62 60 60 59 56 54 58 58 53 50 50 52 55 73 74 72 71 71 74 70 71 77 72 61 64 68 71 75 80 71 70 69
62 61 60 59 56 53 50 56 51 49 49 52 54 57 75 73 71 74 74 76 73 68 60 58 59 62 63 69 69 70 71 71
61 61 62 61 58 50 48 53 56 55 54 51 55 58 65 74 75 79 79 78 82 62 55 56 60 62 62 62 64 71 74 72
61 64 65 61 55 48 46 50 56 57 53 55 66 68 68 70 74 80 86 85 78 70 56 56 62 61 55 69 70 74 77 78
64 60 56 54 48 47 46 49 50 52 57 66 68 69 70 80 84 84 88 91 90 61 56 60 68 53 73 72 74 82 78 79
64 57 55 53 50 44 46 46 45 50 62 65 72 75 80 82 84 88 88 90 72 64 67 70 75 72 73 73 81 84 87 89
60 54 48 48 46 45 45 41 43 52 62 69 73 78 81 82 86 90 85 79 89 90 76 80 80 70 78 81 85 96 97 95

GFSFLT1_sfc_rhum_033.txt.gz
RH
60 64 74 79 88 87 90 91 93 93 83 79 75 63 64 66 71 67 66 65 68 70 69 69 66 76 80 82 81 80 84 93
64 67 62 66 81 84 84 81 75 70 78 86 81 77 71 74 64 66 64 63 57 61 65 69 76 77 81 81 85 86 92 93
63 74 79 82 81 72 64 57 59 60 62 68 69 73 74 73 71 68 64 63 62 60 66 67 67 73 79 82 92 94 96 95
71 74 85 80 70 66 59 58 57 61 65 68 70 72 77 74 72 72 70 67 66 66 68 74 80 86 91 93 94 92 96 93
77 75 76 71 70 67 62 61 61 62 65 64 64 66 66 78 80 76 70 68 66 68 75 83 90 95 93 94 86 92 93 94
62 59 60 61 64 68 67 64 65 69 70 72 74 72 79 80 74 68 67 66 68 75 81 85 87 92 92 92 93 93 95 94
66 64 64 67 72 72 70 66 71 70 72 72 73 77 78 74 70 64 69 72 74 83 83 90 91 92 92 93 93 91 93 95
72 67 64 65 66 70 70 70 69 69 71 73 74 74 71 66 65 69 72 77 79 80 85 87 92 91 91 92 92 93 93 94
59 58 62 60 64 68 67 70 71 72 70 72 74 68 71 70 69 78 81 82 81 80 84 85 84 88 91 92 95 95 93 96
63 63 66 67 67 64 63 68 68 72 68 69 72 75 73 75 75 81 84 83 76 83 85 88 88 90 92 92 95 94 94 94
66 66 65 66 66 63 65 68 62 58 56 59 58 64 72 76 83 84 86 83 80 84 88 91 90 92 92 93 95 94 94 95
63 61 58 58 59 60 66 61 56 57 56 58 62 70 77 80 83 83 83 81 81 82 79 78 81 86 87 92 90 91 83 74
62 59 59 59 59 57 61 61 60 56 55 58 62 72 78 82 82 78 76 79 75 81 80 69 62 67 68 69 71 70 68 70
64 60 62 61 57 53 51 54 62 58 58 62 60 61 64 74 77 78 78 82 84 86 82 82 73 65 63 67 69 70 71 73
65 63 63 61 58 52 53 55 61 61 58 59 66 71 71 73 77 81 83 86 90 90 90 81 72 65 64 65 66 70 74 74
66 63 62 60 61 54 51 53 53 55 60 66 72 75 74 75 77 84 87 92 91 93 94 87 66 64 57 67 69 75 78 80
62 60 57 55 48 48 47 48 48 54 66 67 73 77 80 84 87 88 91 93 94 93 82 73 75 56 74 72 77 85 81 82
70 59 51 48 48 45 44 46 48 52 64 68 75 80 83 84 85 89 93 96 91 84 86 77 74 73 72 75 81 92 91 95
51 48 45 47 47 42 46 45 48 58 66 72 75 76 86 88 91 92 89 94 95 99 91 81 78 75 80 84 84 92 92 90